This demonstration page uses our WeatherBlox Daily Observations layout. Learn more.

Left ArrowRight Arrow

39.08367, -84.50855

Hourly Observations for October 26, 2015

Temp ( °F °C ) Dew Point ( °F °C ) Humidity (%) Winds ( mph kmh ) Pressure ( in mb ) Visibility ( mi km ) Precip ( " mm )
12:53 am 00:53 Clear 43 6.1 41 5 93 93 NNE 7 11 30.34 1028 10 16 0.00 0.00
1:53 am 01:53 Clear 45 7.2 39 3.9 80 80 NNE 7 11 30.35 1028 10 16 0.00 0.00
2:53 am 02:53 Clear 44 6.7 38 3.3 79 79 NNE 6 9 30.35 1028 10 16 0.00 0.00
3:53 am 03:53 Clear 43 6.1 38 3.3 82 82 NNE 8 13 30.35 1028 10 16 0.00 0.00
4:53 am 04:53 Clear 40 4.4 38 3.3 93 93 Calm 30.35 1028 10 16 0.00 0.00
5:53 am 05:53 Clear 40 4.4 39 3.9 97 97 Calm 30.38 1029 10 16 0.00 0.00
6:53 am 06:53 Clear with Mist and Fog 37 2.8 37 2.8 100 100 Calm 30.37 1029 5 8 0.00 0.00
7:53 am 07:53 Clear 37 2.8 36 2.2 96 96 Calm 30.39 1029 10 16 0.00 0.00
8:53 am 08:53 Sunny 37 2.8 37 2.8 100 100 Calm 30.39 1029 10 16 0.00 0.00
9:53 am 09:53 Sunny 47 8.3 40 4.4 77 77 NNE 6 9 30.40 1029 10 16 0.00 0.00
10:53 am 10:53 Sunny 52 11.1 40 4.4 64 64 NE 9 15 30.39 1029 10 16 0.00 0.00
11:53 am 11:53 Sunny 56 13.3 37 2.8 49 49 ENE 14 22 30.37 1029 10 16 0.00 0.00
12:53 pm 12:53 Sunny 59 15 36 2.2 42 42 ENE 10 17 30.35 1028 10 16 0.00 0.00
1:53 pm 13:53 Sunny 61 16.1 36 2.2 39 39 ENE 12 19 30.32 1027 10 16 0.00 0.00
2:53 pm 14:53 Sunny 63 17.2 34 1.1 34 34 ENE 9 15 30.29 1026 10 16 0.00 0.00
3:53 pm 15:53 Sunny 64 17.8 36 2.2 35 35 NE 9 15 30.27 1025 10 16 0.00 0.00
4:53 pm 16:53 Sunny 64 17.8 35 1.7 34 34 ENE 10 17 30.27 1025 10 16 0.00 0.00
5:53 pm 17:53 Sunny 63 17.2 36 2.2 37 37 ENE 8 13 30.27 1025 10 16 0.00 0.00
6:53 pm 18:53 Mostly Cloudy 57 13.9 38 3.3 49 49 NE 3 6 30.29 1026 10 16 0.00 0.00
7:53 pm 19:53 Cloudy 54 12.2 44 6.7 69 69 NNE 3 6 30.30 1026 10 16 0.00 0.00
8:53 pm 20:53 Cloudy 57 13.9 37 2.8 47 47 NE 6 9 30.30 1026 10 16 0.00 0.00
9:53 pm 21:53 Cloudy 56 13.3 37 2.8 49 49 NE 6 9 30.31 1026 10 16 0.00 0.00
10:53 pm 22:53 Cloudy 57 13.9 37 2.8 47 47 NE 5 7 30.30 1026 10 16 0.00 0.00
11:53 pm 23:53 Cloudy 56 13.3 38 3.3 51 51 NNE 5 7 30.30 1026 10 16 0.00 0.00

Powered by AerisWeather